Time,TemperatureF,DewpointF,PressureIn,WindDirection,WindDirectionDegrees,WindSpeedMPH,WindSpeedGustMPH,Humidity,HourlyPrecipIn,Conditions,Clouds,dailyrainin,SoftwareType,DateUTC
2013-02-02 00:01:00,22.1,14.1,30.22,West,263,13.8,13.8,71,0.00,FEW,,0.00,WeatherDisplay:10.37,2013-02-02 05:01:00,
2013-02-02 00:06:00,22.0,14.0,30.22,WSW,246,4.0,4.0,71,0.00,CLR,,0.00,WeatherDisplay:10.37,2013-02-02 05:06:00,
2013-02-02 00:11:00,22.0,14.0,30.22,SSW,196,3.5,3.5,71,0.00,CLR,,0.00,WeatherDisplay:10.37,2013-02-02 05:11:00,
2013-02-02 00:16:00,22.0,14.0,30.22,WSW,240,9.2,9.2,71,0.00,CLR,,0.00,WeatherDisplay:10.37,2013-02-02 05:16:00,
2013-02-02 00:21:00,22.0,13.7,30.22,WNW,290,8.1,8.1,70,0.00,CLR,,0.00,WeatherDisplay:10.37,2013-02-02 05:21:00,
2013-02-02 00:26:00,22.0,13.7,30.22,NW,310,3.5,3.5,70,0.00,CLR,,0.00,WeatherDisplay:10.37,2013-02-02 05:26:00,
2013-02-02 00:31:00,21.9,13.3,30.22,West,274,4.6,4.6,69,0.00,CLR,,0.00,WeatherDisplay:10.37,2013-02-02 05:31:00,
2013-02-02 00:36:00,21.9,13.3,30.22,NW,304,4.0,4.0,69,0.00,CLR,,0.00,WeatherDisplay:10.37,2013-02-02 05:36:00,
2013-02-02 00:41:00,21.8,13.2,30.22,WNW,286,3.5,3.5,69,0.00,CLR,,0.00,WeatherDisplay:10.37,2013-02-02 05:41:00,
2013-02-02 00:46:00,21.8,13.2,30.22,NW,304,4.0,4.0,69,0.00,CLR,,0.00,WeatherDisplay:10.37,2013-02-02 05:46:00,
2013-02-02 00:51:00,21.7,13.1,30.22,WSW,246,5.8,5.8,69,0.00,CLR,,0.00,WeatherDisplay:10.37,2013-02-02 05:51:00,
2013-02-02 00:56:00,21.7,13.1,30.22,NW,316,10.4,10.4,69,0.00,CLR,,0.00,WeatherDisplay:10.37,2013-02-02 05:56:00,
2013-02-02 01:01:00,21.8,13.2,30.22,NW,310,5.8,5.8,69,0.00,CLR,,0.00,WeatherDisplay:10.37,2013-02-02 06:01:00,
2013-02-02 01:06:00,21.8,13.2,30.22,NW,320,9.0,9.0,69,0.00,CLR,,0.00,WeatherDisplay:10.37,2013-02-02 06:06:00,
2013-02-02 01:11:00,21.8,13.2,30.22,SW,229,3.5,3.5,69,0.00,CLR,,0.00,WeatherDisplay:10.37,2013-02-02 06:11:00,
2013-02-02 01:16:00,21.7,13.1,30.22,WNW,302,4.6,4.6,69,0.00,CLR,,0.00,WeatherDisplay:10.37,2013-02-02 06:16:00,
2013-02-02 01:21:00,21.6,13.3,30.22,WNW,282,6.9,6.9,70,0.00,CLR,,0.00,WeatherDisplay:10.37,2013-02-02 06:21:00,
2013-02-02 01:26:00,21.6,13.3,30.22,West,259,4.0,4.0,70,0.00,CLR,,0.00,WeatherDisplay:10.37,2013-02-02 06:26:00,
2013-02-02 01:31:00,21.5,13.2,30.23,West,273,3.5,3.5,70,0.00,CLR,,0.00,WeatherDisplay:10.37,2013-02-02 06:31:00,
2013-02-02 01:36:00,21.5,13.2,30.23,WSW,239,3.5,3.5,70,0.00,CLR,,0.00,WeatherDisplay:10.37,2013-02-02 06:36:00,
2013-02-02 01:41:00,21.5,13.5,30.23,WNW,285,7.0,7.0,71,0.00,CLR,,0.00,WeatherDisplay:10.37,2013-02-02 06:41:00,
2013-02-02 01:46:00,21.5,13.5,30.23,NW,312,7.0,7.0,71,0.00,CLR,,0.00,WeatherDisplay:10.37,2013-02-02 06:46:00,
2013-02-02 01:51:00,21.5,13.5,30.23,WNW,286,10.0,10.0,71,0.00,CLR,,0.00,WeatherDisplay:10.37,2013-02-02 06:51:00,
2013-02-02 01:56:00,21.5,13.5,30.23,WSW,239,6.9,6.9,71,0.00,CLR,,0.00,WeatherDisplay:10.37,2013-02-02 06:56:00,
2013-02-02 02:01:00,21.5,13.5,30.24,West,261,3.5,3.5,71,0.00,CLR,,0.00,WeatherDisplay:10.37,2013-02-02 07:01:00,
2013-02-02 02:06:00,21.4,13.5,30.24,NW,313,4.6,4.6,71,0.00,CLR,,0.00,WeatherDisplay:10.37,2013-02-02 07:06:00,
2013-02-02 02:11:00,21.3,13.4,30.24,WSW,253,4.6,4.6,71,0.00,CLR,,0.00,WeatherDisplay:10.37,2013-02-02 07:11:00,
2013-02-02 02:16:00,21.3,13.4,30.24,WNW,293,7.0,7.0,71,0.00,CLR,,0.00,WeatherDisplay:10.37,2013-02-02 07:16:00,
2013-02-02 02:21:00,21.2,13.6,30.24,NNW,332,3.5,3.5,72,0.00,CLR,,0.00,WeatherDisplay:10.37,2013-02-02 07:21:00,
2013-02-02 02:26:00,21.2,13.6,30.24,NW,304,6.9,6.9,72,0.00,CLR,,0.00,WeatherDisplay:10.37,2013-02-02 07:26:00,
2013-02-02 02:31:00,21.2,13.3,30.24,NW,304,4.0,4.0,71,0.00,CLR,,0.00,WeatherDisplay:10.37,2013-02-02 07:31:00,
2013-02-02 02:36:00,21.2,13.3,30.24,WNW,288,3.5,3.5,71,0.00,CLR,,0.00,WeatherDisplay:10.37,2013-02-02 07:36:00,
2013-02-02 02:41:00,21.2,13.6,30.24,West,259,4.0,4.0,72,0.00,CLR,,0.00,WeatherDisplay:10.37,2013-02-02 07:41:00,
2013-02-02 02:46:00,21.2,13.6,30.24,WSW,244,0.0,0.0,72,0.00,CLR,,0.00,WeatherDisplay:10.37,2013-02-02 07:46:00,
2013-02-02 02:51:00,21.1,13.5,30.24,SW,236,4.6,0.0,72,0.00,CLR,,0.00,WeatherDisplay:10.37,2013-02-02 07:51:00,
2013-02-02 02:56:00,21.0,13.7,30.24,West,261,3.5,3.5,73,0.00,CLR,,0.00,WeatherDisplay:10.37,2013-02-02 07:56:00,
2013-02-02 03:01:00,20.8,13.5,30.24,WSW,249,3.5,3.5,73,0.00,CLR,,0.00,WeatherDisplay:10.37,2013-02-02 08:01:00,
2013-02-02 03:06:00,20.7,13.4,30.24,WSW,249,4.6,4.6,73,0.00,CLR,,0.00,WeatherDisplay:10.37,2013-02-02 08:06:00,
2013-02-02 03:11:00,20.6,13.6,30.24,WSW,249,2.0,2.0,74,0.00,CLR,,0.00,WeatherDisplay:10.37,2013-02-02 08:11:00,
2013-02-02 03:16:00,20.4,13.4,30.24,WSW,247,4.0,4.0,74,0.00,CLR,,0.00,WeatherDisplay:10.37,2013-02-02 08:16:00,
2013-02-02 03:21:00,20.4,13.1,30.24,SSW,209,1.1,1.1,73,0.00,CLR,,0.00,WeatherDisplay:10.37,2013-02-02 08:21:00,
2013-02-02 03:26:00,20.4,12.8,30.24,NW,305,3.5,3.5,72,0.00,CLR,,0.00,WeatherDisplay:10.37,2013-02-02 08:26:00,
2013-02-02 03:31:00,20.4,12.8,30.24,WNW,284,3.5,3.5,72,0.00,CLR,,0.00,WeatherDisplay:10.37,2013-02-02 08:31:00,
2013-02-02 03:36:00,20.4,12.5,30.24,WNW,290,8.1,8.1,71,0.00,CLR,,0.00,WeatherDisplay:10.37,2013-02-02 08:36:00,
2013-02-02 03:41:00,20.4,12.5,30.25,SW,216,3.5,3.5,71,0.00,CLR,,0.00,WeatherDisplay:10.37,2013-02-02 08:41:00,
2013-02-02 03:46:00,20.4,11.8,30.25,SW,229,3.5,3.5,69,0.00,CLR,,0.00,WeatherDisplay:10.37,2013-02-02 08:46:00,
2013-02-02 03:51:00,20.4,12.2,30.25,SW,225,2.0,2.0,70,0.00,CLR,,0.00,WeatherDisplay:10.37,2013-02-02 08:51:00,
2013-02-02 03:56:00,20.4,11.8,30.25,SW,217,5.8,5.8,69,0.00,CLR,,0.00,WeatherDisplay:10.37,2013-02-02 08:56:00,
2013-02-02 04:01:00,20.3,11.4,30.25,WNW,299,4.6,4.6,68,0.00,CLR,,0.00,WeatherDisplay:10.37,2013-02-02 09:01:00,
2013-02-02 04:06:00,20.3,11.4,30.25,WSW,246,3.5,3.5,68,0.00,CLR,,0.00,WeatherDisplay:10.37,2013-02-02 09:06:00,
2013-02-02 04:11:00,20.3,11.4,30.26,SW,216,3.0,3.0,68,0.00,CLR,,0.00,WeatherDisplay:10.37,2013-02-02 09:11:00,
2013-02-02 04:16:00,20.2,11.3,30.26,WSW,242,4.6,4.6,68,0.00,CLR,,0.00,WeatherDisplay:10.37,2013-02-02 09:16:00,
2013-02-02 04:21:00,20.0,11.1,30.26,West,261,2.3,2.3,68,0.00,CLR,,0.00,WeatherDisplay:10.37,2013-02-02 09:21:00,
2013-02-02 04:26:00,19.9,11.0,30.26,WNW,290,2.3,2.3,68,0.00,CLR,,0.00,WeatherDisplay:10.37,2013-02-02 09:26:00,
2013-02-02 04:31:00,19.7,10.8,30.26,WNW,290,3.5,3.5,68,0.00,CLR,,0.00,WeatherDisplay:10.37,2013-02-02 09:31:00,
2013-02-02 04:36:00,19.7,10.8,30.26,WSW,255,6.9,6.9,68,0.00,CLR,,0.00,WeatherDisplay:10.37,2013-02-02 09:36:00,
2013-02-02 04:41:00,19.7,10.8,30.26,West,266,4.6,4.6,68,0.00,CLR,,0.00,WeatherDisplay:10.37,2013-02-02 09:41:00,
2013-02-02 04:46:00,19.7,10.8,30.26,NW,310,4.6,4.6,68,0.00,CLR,,0.00,WeatherDisplay:10.37,2013-02-02 09:46:00,
2013-02-02 04:51:00,19.6,10.7,30.26,WNW,288,5.8,5.8,68,0.00,CLR,,0.00,WeatherDisplay:10.37,2013-02-02 09:51:00,
2013-02-02 04:56:00,19.5,10.6,30.26,WSW,237,4.0,4.0,68,0.00,CLR,,0.00,WeatherDisplay:10.37,2013-02-02 09:56:00,
2013-02-02 05:01:00,19.4,10.9,30.26,WSW,239,4.6,4.6,69,0.00,CLR,,0.00,WeatherDisplay:10.37,2013-02-02 10:01:00,
2013-02-02 05:06:00,19.2,10.7,30.26,WSW,253,2.3,2.3,69,0.00,CLR,,0.00,WeatherDisplay:10.37,2013-02-02 10:06:00,
2013-02-02 05:11:00,19.1,10.6,30.26,WSW,253,0.0,0.0,69,0.00,CLR,,0.00,WeatherDisplay:10.37,2013-02-02 10:11:00,
2013-02-02 05:16:00,19.0,10.5,30.26,West,281,4.0,4.0,69,0.00,CLR,,0.00,WeatherDisplay:10.37,2013-02-02 10:16:00,
2013-02-02 05:21:00,18.9,10.4,30.26,WSW,240,2.3,0.0,69,0.00,CLR,,0.00,WeatherDisplay:10.37,2013-02-02 10:21:00,
2013-02-02 05:26:00,18.9,10.7,30.26,SW,223,2.3,2.3,70,0.00,CLR,,0.00,WeatherDisplay:10.37,2013-02-02 10:26:00,
2013-02-02 05:31:00,18.8,10.6,30.26,WNW,293,3.5,3.5,70,0.00,CLR,,0.00,WeatherDisplay:10.37,2013-02-02 10:31:00,
2013-02-02 05:36:00,18.7,10.5,30.26,WSW,238,3.5,3.5,70,0.00,CLR,,0.00,WeatherDisplay:10.37,2013-02-02 10:36:00,
2013-02-02 05:41:00,18.6,10.4,30.26,SW,220,2.3,2.3,70,0.00,CLR,,0.00,WeatherDisplay:10.37,2013-02-02 10:41:00,
2013-02-02 05:46:00,18.5,10.3,30.26,South,188,4.6,4.6,70,0.00,CLR,,0.00,WeatherDisplay:10.37,2013-02-02 10:46:00,
2013-02-02 05:51:00,18.4,10.6,30.26,SW,231,5.8,5.8,71,0.00,CLR,,0.00,WeatherDisplay:10.37,2013-02-02 10:51:00,
2013-02-02 05:56:00,18.3,10.5,30.26,SW,231,2.3,2.3,71,0.00,CLR,,0.00,WeatherDisplay:10.37,2013-02-02 10:56:00,
2013-02-02 06:01:00,18.3,10.5,30.26,WSW,237,2.3,2.3,71,0.00,CLR,,0.00,WeatherDisplay:10.37,2013-02-02 11:01:00,
2013-02-02 06:06:00,18.2,10.4,30.27,WNW,302,0.0,0.0,71,0.00,CLR,,0.00,WeatherDisplay:10.37,2013-02-02 11:06:00,
2013-02-02 06:11:00,18.2,10.4,30.27,WNW,295,3.5,3.5,71,0.00,CLR,,0.00,WeatherDisplay:10.37,2013-02-02 11:11:00,
2013-02-02 06:16:00,18.1,10.3,30.27,WSW,239,1.1,1.1,71,0.00,CLR,,0.00,WeatherDisplay:10.37,2013-02-02 11:16:00,
2013-02-02 06:21:00,18.1,10.3,30.27,WNW,290,4.0,4.0,71,0.00,CLR,,0.00,WeatherDisplay:10.37,2013-02-02 11:21:00,
2013-02-02 06:26:00,18.0,10.2,30.27,NW,307,3.5,3.5,71,0.00,CLR,,0.00,WeatherDisplay:10.37,2013-02-02 11:26:00,
2013-02-02 06:31:00,17.9,10.4,30.27,West,268,4.0,4.0,72,0.00,CLR,,0.00,WeatherDisplay:10.37,2013-02-02 11:31:00,
2013-02-02 06:36:00,17.8,10.0,30.27,West,269,1.0,1.0,71,0.00,CLR,,0.00,WeatherDisplay:10.37,2013-02-02 11:36:00,
2013-02-02 06:41:00,17.7,10.2,30.27,West,263,2.3,2.3,72,0.00,CLR,,0.00,WeatherDisplay:10.37,2013-02-02 11:41:00,
2013-02-02 06:46:00,17.6,10.1,30.27,West,261,1.0,1.0,72,0.00,CLR,,0.00,WeatherDisplay:10.37,2013-02-02 11:46:00,
2013-02-02 06:51:00,17.5,10.0,30.27,West,261,2.3,2.3,72,0.00,CLR,,0.00,WeatherDisplay:10.37,2013-02-02 11:51:00,
2013-02-02 06:56:00,17.4,9.9,30.28,West,271,2.3,2.3,72,0.00,CLR,,0.00,WeatherDisplay:10.37,2013-02-02 11:56:00,
2013-02-02 07:01:00,17.3,9.8,30.28,West,275,0.0,0.0,72,0.00,CLR,,0.00,WeatherDisplay:10.37,2013-02-02 12:01:00,
2013-02-02 07:06:00,17.3,9.8,30.28,West,275,2.3,2.3,72,0.00,CLR,,0.00,WeatherDisplay:10.37,2013-02-02 12:06:00,
2013-02-02 07:11:00,17.2,10.0,30.28,WSW,258,1.1,1.1,73,0.00,CLR,,0.00,WeatherDisplay:10.37,2013-02-02 12:11:00,
2013-02-02 07:16:00,17.2,10.0,30.28,West,261,4.6,4.6,73,0.00,CLR,,0.00,WeatherDisplay:10.37,2013-02-02 12:16:00,
2013-02-02 07:21:00,17.1,9.9,30.29,West,261,2.0,2.0,73,0.00,CLR,,0.00,WeatherDisplay:10.37,2013-02-02 12:21:00,
2013-02-02 07:26:00,17.1,9.9,30.29,WSW,238,4.0,4.0,73,0.00,CLR,,0.00,WeatherDisplay:10.37,2013-02-02 12:26:00,
2013-02-02 07:31:00,17.2,10.0,30.29,SW,230,5.0,5.0,73,0.00,CLR,,0.00,WeatherDisplay:10.37,2013-02-02 12:31:00,
2013-02-02 07:36:00,17.3,9.8,30.29,SW,225,4.6,4.6,72,0.00,CLR,,0.00,WeatherDisplay:10.37,2013-02-02 12:36:00,
2013-02-02 07:41:00,17.6,10.1,30.29,WSW,240,4.0,4.0,72,0.00,CLR,,0.00,WeatherDisplay:10.37,2013-02-02 12:41:00,
2013-02-02 07:46:00,18.1,10.6,30.29,SW,220,2.3,2.3,72,0.00,CLR,,0.00,WeatherDisplay:10.37,2013-02-02 12:46:00,
2013-02-02 07:51:00,18.6,10.8,30.30,SW,219,3.5,3.5,71,0.00,CLR,,0.00,WeatherDisplay:10.37,2013-02-02 12:51:00,
2013-02-02 07:56:00,19.2,11.0,30.30,SSW,213,5.0,5.0,70,0.00,CLR,,0.00,WeatherDisplay:10.37,2013-02-02 12:56:00,
2013-02-02 08:01:00,19.3,10.8,30.30,WSW,247,4.6,4.6,69,0.00,CLR,,0.00,WeatherDisplay:10.37,2013-02-02 13:01:00,
2013-02-02 08:06:00,19.4,10.6,30.30,WSW,247,5.8,5.8,68,0.00,CLR,,0.00,WeatherDisplay:10.37,2013-02-02 13:06:00,
2013-02-02 08:11:00,19.7,10.8,30.30,SW,236,3.5,3.5,68,0.00,CLR,,0.00,WeatherDisplay:10.37,2013-02-02 13:11:00,
2013-02-02 08:16:00,19.7,10.8,30.30,SSW,199,5.0,5.0,68,0.00,CLR,,0.00,WeatherDisplay:10.37,2013-02-02 13:16:00,
2013-02-02 08:21:00,19.9,10.7,30.29,WSW,237,4.0,4.0,67,0.00,CLR,,0.00,WeatherDisplay:10.37,2013-02-02 13:21:00,
2013-02-02 08:26:00,20.3,10.7,30.29,WSW,254,5.0,5.0,66,0.00,CLR,,0.00,WeatherDisplay:10.37,2013-02-02 13:26:00,
2013-02-02 08:31:00,20.6,11.0,30.29,WSW,257,4.6,4.6,66,0.00,CLR,,0.00,WeatherDisplay:10.37,2013-02-02 13:31:00,
2013-02-02 08:36:00,20.7,11.1,30.29,SW,225,4.0,4.0,66,0.00,CLR,,0.00,WeatherDisplay:10.37,2013-02-02 13:36:00,
2013-02-02 08:41:00,20.8,11.6,30.29,SW,221,4.6,4.6,67,0.00,CLR,,0.00,WeatherDisplay:10.37,2013-02-02 13:41:00,
2013-02-02 08:46:00,20.9,11.3,30.29,WSW,238,3.5,3.5,66,0.00,CLR,,0.00,WeatherDisplay:10.37,2013-02-02 13:46:00,
2013-02-02 08:51:00,21.0,11.4,30.29,NW,309,6.0,6.0,66,0.00,CLR,,0.00,WeatherDisplay:10.37,2013-02-02 13:51:00,
2013-02-02 08:56:00,21.1,11.5,30.29,WNW,298,4.6,4.6,66,0.00,CLR,,0.00,WeatherDisplay:10.37,2013-02-02 13:56:00,
2013-02-02 09:01:00,21.2,11.6,30.29,NNW,330,4.6,4.6,66,0.00,CLR,,0.00,WeatherDisplay:10.37,2013-02-02 14:01:00,
2013-02-02 09:06:00,21.2,11.3,30.29,NW,318,5.0,5.0,65,0.00,CLR,,0.00,WeatherDisplay:10.37,2013-02-02 14:06:00,
2013-02-02 09:11:00,20.9,11.0,30.28,WNW,284,2.0,2.0,65,0.00,CLR,,0.00,WeatherDisplay:10.37,2013-02-02 14:11:00,
2013-02-02 09:16:00,20.9,11.0,30.28,SW,236,10.4,10.4,65,0.00,CLR,,0.00,WeatherDisplay:10.37,2013-02-02 14:16:00,
2013-02-02 09:21:00,20.9,11.0,30.28,NW,309,3.5,3.5,65,0.00,CLR,,0.00,WeatherDisplay:10.37,2013-02-02 14:21:00,
2013-02-02 09:26:00,20.8,10.5,30.27,West,280,6.0,6.0,64,0.00,CLR,,0.00,WeatherDisplay:10.37,2013-02-02 14:26:00,
2013-02-02 09:31:00,20.8,10.9,30.27,WNW,302,4.6,4.6,65,0.00,CLR,,0.00,WeatherDisplay:10.37,2013-02-02 14:31:00,
2013-02-02 09:36:00,21.2,11.6,30.27,West,276,3.5,3.5,66,0.00,CLR,,0.00,WeatherDisplay:10.37,2013-02-02 14:36:00,
2013-02-02 09:41:00,21.7,12.1,30.27,West,259,3.5,3.5,66,0.00,CLR,,0.00,WeatherDisplay:10.37,2013-02-02 14:41:00,
2013-02-02 09:46:00,22.1,11.8,30.27,SSW,211,2.3,2.3,64,0.00,CLR,,0.00,WeatherDisplay:10.37,2013-02-02 14:46:00,
2013-02-02 09:51:00,22.4,12.1,30.28,West,266,8.1,8.1,64,0.00,CLR,,0.00,WeatherDisplay:10.37,2013-02-02 14:51:00,
2013-02-02 09:56:00,22.5,11.4,30.27,NW,312,3.5,3.5,62,0.00,CLR,,0.00,WeatherDisplay:10.37,2013-02-02 14:56:00,
2013-02-02 10:01:00,22.5,11.8,30.27,West,279,3.5,3.5,63,0.00,CLR,,0.00,WeatherDisplay:10.37,2013-02-02 15:01:00,
2013-02-02 10:06:00,22.8,12.1,30.27,West,266,8.1,8.1,63,0.00,CLR,,0.00,WeatherDisplay:10.37,2013-02-02 15:06:00,
2013-02-02 10:11:00,22.9,12.2,30.26,WNW,301,3.5,3.5,63,0.00,CLR,,0.00,WeatherDisplay:10.37,2013-02-02 15:11:00,
2013-02-02 10:16:00,23.3,12.2,30.26,WNW,284,1.1,1.1,62,0.00,CLR,,0.00,WeatherDisplay:10.37,2013-02-02 15:16:00,
2013-02-02 10:21:00,23.9,12.8,30.26,WSW,241,6.0,6.0,62,0.00,CLR,,0.00,WeatherDisplay:10.37,2013-02-02 15:21:00,
2013-02-02 10:26:00,24.2,12.7,30.26,WSW,251,6.9,6.9,61,0.00,CLR,,0.00,WeatherDisplay:10.37,2013-02-02 15:26:00,
2013-02-02 10:31:00,23.9,12.0,30.26,WSW,255,0.0,0.1,60,0.00,CLR,,0.00,WeatherDisplay:10.37,2013-02-02 15:31:00,
2013-02-02 10:36:00,24.1,12.2,30.26,SW,221,5.8,5.8,60,0.00,CLR,,0.00,WeatherDisplay:10.37,2013-02-02 15:36:00,
2013-02-02 10:41:00,24.3,12.4,30.25,South,184,6.9,6.9,60,0.00,CLR,,0.00,WeatherDisplay:10.37,2013-02-02 15:41:00,
2013-02-02 10:46:00,24.2,12.3,30.25,SSW,196,8.1,8.1,60,0.00,CLR,,0.00,WeatherDisplay:10.37,2013-02-02 15:46:00,
2013-02-02 10:51:00,24.2,12.7,30.25,SSE,153,6.0,6.0,61,0.00,CLR,,0.00,WeatherDisplay:10.37,2013-02-02 15:51:00,
2013-02-02 10:56:00,24.3,12.8,30.25,NW,312,3.5,3.5,61,0.00,CLR,,0.00,WeatherDisplay:10.37,2013-02-02 15:56:00,
2013-02-02 11:01:00,24.5,12.6,30.24,WSW,255,8.0,8.0,60,0.00,CLR,,0.00,WeatherDisplay:10.37,2013-02-02 16:01:00,
2013-02-02 11:06:00,24.8,12.5,30.24,WNW,288,4.6,4.6,59,0.00,CLR,,0.00,WeatherDisplay:10.37,2013-02-02 16:06:00,
2013-02-02 11:11:00,25.0,12.7,30.24,SW,215,6.9,6.9,59,0.00,CLR,,0.00,WeatherDisplay:10.37,2013-02-02 16:11:00,
2013-02-02 11:16:00,25.2,12.9,30.24,SSW,212,4.0,4.0,59,0.00,CLR,,0.00,WeatherDisplay:10.37,2013-02-02 16:16:00,
2013-02-02 11:21:00,25.3,13.0,30.23,SSW,205,3.5,3.5,59,0.00,CLR,,0.00,WeatherDisplay:10.37,2013-02-02 16:21:00,
2013-02-02 11:26:00,25.5,13.1,30.23,SSW,197,3.5,3.5,59,0.00,CLR,,0.00,WeatherDisplay:10.37,2013-02-02 16:26:00,
2013-02-02 11:31:00,25.5,12.4,30.23,SSW,209,7.0,7.0,57,0.00,CLR,,0.00,WeatherDisplay:10.37,2013-02-02 16:31:00,
2013-02-02 11:36:00,25.6,13.2,30.22,WSW,248,5.8,5.8,59,0.00,CLR,,0.00,WeatherDisplay:10.37,2013-02-02 16:36:00,
2013-02-02 11:41:00,26.1,12.5,30.22,South,173,11.5,11.5,56,0.00,CLR,,0.00,WeatherDisplay:10.37,2013-02-02 16:41:00,
2013-02-02 11:46:00,26.3,13.1,30.21,SW,217,3.5,3.5,57,0.00,CLR,,0.00,WeatherDisplay:10.37,2013-02-02 16:46:00,
2013-02-02 11:51:00,27.0,13.4,30.21,SSW,198,8.0,8.0,56,0.00,CLR,,0.00,WeatherDisplay:10.37,2013-02-02 16:51:00,
2013-02-02 11:56:00,27.1,13.1,30.20,WSW,237,10.4,10.4,55,0.00,CLR,,0.00,WeatherDisplay:10.37,2013-02-02 16:56:00,
2013-02-02 12:01:00,27.5,13.4,30.20,West,264,8.1,8.1,55,0.00,CLR,,0.00,WeatherDisplay:10.37,2013-02-02 17:01:00,
2013-02-02 12:06:00,27.9,13.0,30.20,South,178,11.5,11.5,53,0.00,CLR,,0.00,WeatherDisplay:10.37,2013-02-02 17:06:00,
2013-02-02 12:11:00,27.7,12.8,30.19,SSE,157,8.1,8.1,53,0.00,CLR,,0.00,WeatherDisplay:10.37,2013-02-02 17:11:00,
2013-02-02 12:16:00,27.7,12.8,30.19,NW,311,5.8,5.8,53,0.00,CLR,,0.00,WeatherDisplay:10.37,2013-02-02 17:16:00,
2013-02-02 12:21:00,27.9,13.0,30.19,SSE,155,12.7,12.7,53,0.00,CLR,,0.00,WeatherDisplay:10.37,2013-02-02 17:21:00,
2013-02-02 12:26:00,27.6,12.2,30.18,SSE,165,10.4,10.4,52,0.00,CLR,,0.00,WeatherDisplay:10.37,2013-02-02 17:26:00,
2013-02-02 12:31:00,27.6,12.2,30.18,South,185,8.1,8.1,52,0.00,CLR,,0.00,WeatherDisplay:10.37,2013-02-02 17:31:00,
2013-02-02 12:36:00,27.9,12.1,30.18,SSW,196,11.5,11.5,51,0.00,CLR,,0.00,WeatherDisplay:10.37,2013-02-02 17:36:00,
2013-02-02 12:41:00,28.0,12.6,30.18,WSW,238,8.1,8.1,52,0.00,CLR,,0.00,WeatherDisplay:10.37,2013-02-02 17:41:00,
2013-02-02 12:46:00,28.2,11.9,30.17,WSW,249,10.0,10.0,50,0.00,CLR,,0.00,WeatherDisplay:10.37,2013-02-02 17:46:00,
2013-02-02 12:51:00,28.0,11.3,30.17,West,266,12.7,12.7,49,0.00,CLR,,0.00,WeatherDisplay:10.37,2013-02-02 17:51:00,
2013-02-02 12:56:00,28.2,12.8,30.17,SSW,193,6.9,6.9,52,0.00,CLR,,0.00,WeatherDisplay:10.37,2013-02-02 17:56:00,
2013-02-02 13:01:00,28.0,11.3,30.17,WSW,240,13.8,13.8,49,0.00,CLR,,0.00,WeatherDisplay:10.37,2013-02-02 18:01:00,
2013-02-02 13:06:00,27.9,12.1,30.16,South,172,11.5,11.5,51,0.00,CLR,,0.00,WeatherDisplay:10.37,2013-02-02 18:06:00,
2013-02-02 13:11:00,28.0,12.2,30.16,SE,124,9.2,9.2,51,0.00,CLR,,0.00,WeatherDisplay:10.37,2013-02-02 18:11:00,
2013-02-02 13:16:00,28.2,12.4,30.16,SW,216,11.5,11.5,51,0.00,CLR,,0.00,WeatherDisplay:10.37,2013-02-02 18:16:00,
2013-02-02 13:21:00,28.1,11.8,30.15,WSW,246,10.4,10.4,50,0.00,CLR,,0.00,WeatherDisplay:10.37,2013-02-02 18:21:00,
2013-02-02 13:26:00,27.7,11.5,30.15,SSW,207,9.2,9.2,50,0.00,CLR,,0.00,WeatherDisplay:10.37,2013-02-02 18:26:00,
2013-02-02 13:31:00,27.6,11.4,30.15,SSE,161,11.5,11.5,50,0.00,CLR,,0.00,WeatherDisplay:10.37,2013-02-02 18:31:00,
2013-02-02 13:36:00,27.5,11.3,30.14,SW,215,9.2,9.2,50,0.00,CLR,,0.00,WeatherDisplay:10.37,2013-02-02 18:36:00,
2013-02-02 13:41:00,27.6,11.4,30.14,WSW,256,3.5,3.5,50,0.00,CLR,,0.00,WeatherDisplay:10.37,2013-02-02 18:41:00,
2013-02-02 13:46:00,27.8,11.1,30.14,WSW,253,11.5,11.5,49,0.00,CLR,,0.00,WeatherDisplay:10.37,2013-02-02 18:46:00,
2013-02-02 13:51:00,27.9,11.2,30.14,SSE,158,11.5,11.5,49,0.00,CLR,,0.00,WeatherDisplay:10.37,2013-02-02 18:51:00,
2013-02-02 13:56:00,28.1,11.4,30.14,SW,219,12.7,12.7,49,0.00,CLR,,0.00,WeatherDisplay:10.37,2013-02-02 18:56:00,
2013-02-02 14:01:00,28.5,12.2,30.13,SW,233,4.0,4.0,50,0.00,CLR,,0.00,WeatherDisplay:10.37,2013-02-02 19:01:00,
2013-02-02 14:06:00,28.8,12.0,30.14,West,263,8.1,8.1,49,0.00,SCT,,0.00,WeatherDisplay:10.37,2013-02-02 19:06:00,
2013-02-02 14:11:00,28.9,11.6,30.13,SW,224,4.6,4.6,48,0.00,SCT,,0.00,WeatherDisplay:10.37,2013-02-02 19:11:00,
2013-02-02 14:16:00,29.0,11.3,30.13,South,189,8.0,8.0,47,0.00,SCT,,0.00,WeatherDisplay:10.37,2013-02-02 19:16:00,
2013-02-02 14:21:00,28.7,11.0,30.13,SSW,213,11.5,11.5,47,0.00,SCT,,0.00,WeatherDisplay:10.37,2013-02-02 19:21:00,
2013-02-02 14:24:00,28.4,10.7,30.13,SSW,193,11.5,11.5,47,0.00,SCT,,0.00,WeatherDisplay:10.37,2013-02-02 19:24:00,
2013-02-02 14:26:00,28.4,10.7,30.13,SSW,193,11.5,11.5,47,0.00,SCT,,0.00,WeatherDisplay:10.37,2013-02-02 19:26:00,
2013-02-02 14:30:00,28.4,11.6,30.12,SW,217,3.0,15.0,49,0.00,CLR,,0.00,WeatherDisplay:10.37,2013-02-02 19:30:00,
2013-02-02 14:31:00,28.4,10.7,30.13,SSW,193,11.5,11.5,47,0.00,SCT,,0.00,WeatherDisplay:10.37,2013-02-02 19:31:00,
2013-02-02 14:40:00,28.1,10.4,30.12,SSW,198,3.0,14.0,47,0.00,CLR,,0.00,WeatherDisplay:10.37,2013-02-02 19:40:00,
2013-02-02 14:50:00,27.6,10.4,30.12,SSW,197,6.0,16.0,48,0.00,CLR,,0.00,WeatherDisplay:10.37,2013-02-02 19:50:00,
2013-02-02 15:00:00,27.8,10.6,30.12,WSW,244,6.0,11.0,48,0.00,CLR,,0.00,WeatherDisplay:10.37,2013-02-02 20:00:00,
2013-02-02 15:10:00,27.9,10.7,30.11,WSW,248,1.0,9.0,48,0.00,CLR,,0.00,WeatherDisplay:10.37,2013-02-02 20:10:00,
2013-02-02 15:20:00,27.9,11.2,30.11,WSW,242,7.0,15.0,49,0.00,CLR,,0.00,WeatherDisplay:10.37,2013-02-02 20:20:00,
2013-02-02 15:22:00,28.4,10.7,30.13,SSW,193,11.5,11.5,47,0.00,SCT,,0.00,WeatherDisplay:10.37,2013-02-02 20:22:00,
2013-02-02 15:27:00,28.4,10.7,30.13,SSW,193,11.5,11.5,47,0.00,SCT,,0.00,WeatherDisplay:10.37,2013-02-02 20:27:00,
2013-02-02 15:30:00,27.8,11.1,30.11,WSW,241,3.0,13.0,49,0.00,CLR,,0.00,WeatherDisplay:10.37,2013-02-02 20:30:00,
2013-02-02 15:40:00,27.6,10.9,30.11,SW,233,5.0,11.0,49,0.00,CLR,,0.00,WeatherDisplay:10.37,2013-02-02 20:40:00,
2013-02-02 15:50:00,27.5,11.7,30.11,WSW,240,5.0,9.0,51,0.00,CLR,,0.00,WeatherDisplay:10.37,2013-02-02 20:50:00,
2013-02-02 16:00:00,27.4,12.1,30.10,WSW,254,3.0,10.0,52,0.00,CLR,,0.00,WeatherDisplay:10.37,2013-02-02 21:00:00,
2013-02-02 16:10:00,27.2,12.7,30.10,SW,234,0.0,11.0,54,0.00,CLR,,0.00,WeatherDisplay:10.37,2013-02-02 21:10:00,
2013-02-02 16:13:00,27.1,12.2,30.11,SW,231,10.4,10.4,53,0.00,CLR,,0.00,WeatherDisplay:10.37,2013-02-02 21:13:00,
2013-02-02 16:18:00,27.0,12.5,30.11,West,276,6.9,6.9,54,0.00,SCT,,0.00,WeatherDisplay:10.37,2013-02-02 21:18:00,
2013-02-02 16:23:00,26.8,12.4,30.10,WSW,246,9.2,9.2,54,0.00,SCT,,0.00,WeatherDisplay:10.37,2013-02-02 21:23:00,
2013-02-02 16:28:00,26.7,12.7,30.10,SSW,194,6.0,6.0,55,0.00,SCT,,0.00,WeatherDisplay:10.37,2013-02-02 21:28:00,
2013-02-02 16:33:00,26.7,12.7,30.10,SW,230,5.0,5.0,55,0.00,SCT,,0.00,WeatherDisplay:10.37,2013-02-02 21:33:00,
2013-02-02 16:38:00,26.7,13.5,30.10,SW,222,6.9,6.9,57,0.00,SCT,,0.00,WeatherDisplay:10.37,2013-02-02 21:38:00,
2013-02-02 16:43:00,26.6,13.4,30.10,WSW,258,8.1,8.1,57,0.00,SCT,,0.00,WeatherDisplay:10.37,2013-02-02 21:43:00,
2013-02-02 16:48:00,26.5,13.3,30.09,WSW,253,5.8,5.8,57,0.00,SCT,,0.00,WeatherDisplay:10.37,2013-02-02 21:48:00,
2013-02-02 16:53:00,26.5,13.7,30.09,WSW,246,3.5,3.5,58,0.00,SCT,,0.00,WeatherDisplay:10.37,2013-02-02 21:53:00,
2013-02-02 16:58:00,26.4,13.6,30.09,NW,307,3.5,3.5,58,0.00,SCT,,0.00,WeatherDisplay:10.37,2013-02-02 21:58:00,
2013-02-02 17:03:00,26.4,13.6,30.09,WSW,247,5.8,5.8,58,0.00,BKN,,0.00,WeatherDisplay:10.37,2013-02-02 22:03:00,
2013-02-02 17:08:00,26.3,13.5,30.09,SW,233,3.5,3.5,58,0.00,BKN,,0.00,WeatherDisplay:10.37,2013-02-02 22:08:00,
2013-02-02 17:13:00,26.3,13.5,30.09,WSW,244,4.6,4.6,58,0.00,BKN,,0.00,WeatherDisplay:10.37,2013-02-02 22:13:00,
2013-02-02 17:18:00,26.2,13.8,30.09,WSW,244,5.8,5.8,59,0.00,BKN,,0.00,WeatherDisplay:10.37,2013-02-02 22:18:00,
2013-02-02 17:23:00,26.2,14.2,30.09,WSW,244,3.5,3.5,60,0.00,BKN,,0.00,WeatherDisplay:10.37,2013-02-02 22:23:00,
2013-02-02 17:28:00,26.1,14.5,30.09,WSW,244,2.3,2.3,61,0.00,BKN,,0.00,WeatherDisplay:10.37,2013-02-02 22:28:00,
2013-02-02 17:33:00,26.0,14.0,30.09,SW,235,9.2,9.2,60,0.00,BKN,,0.00,WeatherDisplay:10.37,2013-02-02 22:33:00,
2013-02-02 17:38:00,26.0,14.0,30.09,WNW,282,2.3,2.3,60,0.00,BKN,,0.00,WeatherDisplay:10.37,2013-02-02 22:38:00,
2013-02-02 17:43:00,26.0,14.4,30.09,NW,306,3.5,3.5,61,0.00,BKN,,0.00,WeatherDisplay:10.37,2013-02-02 22:43:00,
2013-02-02 17:48:00,26.0,14.4,30.09,WSW,255,5.0,5.2,61,0.00,BKN,,0.00,WeatherDisplay:10.37,2013-02-02 22:48:00,
2013-02-02 17:53:00,26.1,14.1,30.09,WSW,245,3.5,3.5,60,0.00,BKN,,0.00,WeatherDisplay:10.37,2013-02-02 22:53:00,
2013-02-02 17:58:00,26.1,14.5,30.09,WNW,290,3.5,3.5,61,0.00,BKN,,0.00,WeatherDisplay:10.37,2013-02-02 22:58:00,
2013-02-02 18:03:00,26.2,14.6,30.09,WNW,282,8.1,8.1,61,0.00,OVC,,0.00,WeatherDisplay:10.37,2013-02-02 23:03:00,
2013-02-02 18:08:00,26.1,14.5,30.09,NW,304,5.0,6.0,61,0.00,OVC,,0.00,WeatherDisplay:10.37,2013-02-02 23:08:00,
2013-02-02 18:13:00,26.0,14.8,30.09,SSW,198,4.6,4.6,62,0.00,OVC,,0.00,WeatherDisplay:10.37,2013-02-02 23:13:00,
2013-02-02 18:18:00,26.0,14.8,30.09,West,270,8.1,8.1,62,0.00,OVC,,0.00,WeatherDisplay:10.37,2013-02-02 23:18:00,
2013-02-02 18:23:00,25.9,15.0,30.09,NW,314,10.4,10.4,63,0.00,OVC,,0.00,WeatherDisplay:10.37,2013-02-02 23:23:00,
2013-02-02 18:28:00,25.8,15.6,30.09,WSW,254,6.0,6.0,65,0.00,OVC,,0.00,WeatherDisplay:10.37,2013-02-02 23:28:00,
2013-02-02 18:33:00,25.6,15.8,30.09,SSW,206,8.1,8.1,66,0.00,OVC,,0.00,WeatherDisplay:10.37,2013-02-02 23:33:00,
2013-02-02 18:38:00,25.4,16.0,30.10,WSW,252,6.0,6.0,67,0.00,OVC,,0.00,WeatherDisplay:10.37,2013-02-02 23:38:00,
2013-02-02 18:43:00,25.1,16.4,30.10,SW,225,8.1,8.1,69,0.00,OVC,,0.00,WeatherDisplay:10.37,2013-02-02 23:43:00,
2013-02-02 18:48:00,24.9,16.5,30.10,WNW,285,4.6,4.6,70,0.00,OVC,,0.00,WeatherDisplay:10.37,2013-02-02 23:48:00,
2013-02-02 18:53:00,24.8,16.7,30.10,SW,230,4.6,4.6,71,0.00,OVC,,0.00,WeatherDisplay:10.37,2013-02-02 23:53:00,
2013-02-02 18:58:00,24.7,17.3,30.09,North,5,3.5,3.5,73,0.00,OVC,,0.00,WeatherDisplay:10.37,2013-02-02 23:58:00,
2013-02-02 19:03:00,24.5,17.4,30.09,WSW,252,1.1,1.1,74,0.00,OVC,,0.00,WeatherDisplay:10.37,2013-02-03 00:03:00,
2013-02-02 19:08:00,24.4,17.6,30.09,SW,216,5.0,5.0,75,0.00,OVC,,0.00,WeatherDisplay:10.37,2013-02-03 00:08:00,
2013-02-02 19:13:00,24.2,17.7,30.09,WSW,246,9.2,9.2,76,0.00,OVC,,0.00,WeatherDisplay:10.37,2013-02-03 00:13:00,
2013-02-02 19:18:00,24.0,18.1,30.10,WSW,239,6.9,6.9,78,0.00,OVC,,0.00,WeatherDisplay:10.37,2013-02-03 00:18:00,
2013-02-02 19:23:00,23.9,18.0,30.10,WNW,290,5.0,5.0,78,0.00,OVC,,0.00,WeatherDisplay:10.37,2013-02-03 00:23:00,
2013-02-02 19:28:00,23.8,18.2,30.10,WNW,296,3.5,3.5,79,0.00,OVC,,0.00,WeatherDisplay:10.37,2013-02-03 00:28:00,
2013-02-02 19:33:00,23.6,18.3,30.10,WNW,294,3.5,3.5,80,0.00,OVC,,0.00,WeatherDisplay:10.37,2013-02-03 00:33:00,
2013-02-02 19:38:00,23.5,18.5,30.10,WNW,300,4.6,4.6,81,0.00,OVC,,0.00,WeatherDisplay:10.37,2013-02-03 00:38:00,
2013-02-02 19:43:00,23.4,18.7,30.10,WSW,246,4.6,4.6,82,0.00,OVC,,0.00,WeatherDisplay:10.37,2013-02-03 00:43:00,
2013-02-02 19:48:00,23.3,18.9,30.10,WNW,302,6.9,6.9,83,0.00,OVC,,0.00,WeatherDisplay:10.37,2013-02-03 00:48:00,
2013-02-02 19:53:00,23.2,18.8,30.10,WSW,248,2.3,2.3,83,0.00,OVC,,0.00,WeatherDisplay:10.37,2013-02-03 00:53:00,
2013-02-02 19:58:00,23.1,19.0,30.10,WNW,302,3.0,3.0,84,0.00,OVC,,0.00,WeatherDisplay:10.37,2013-02-03 00:58:00,
2013-02-02 20:03:00,23.0,19.2,30.10,WNW,296,4.6,4.6,85,0.00,-SN,,0.00,WeatherDisplay:10.37,2013-02-03 01:03:00,
2013-02-02 20:08:00,22.9,19.1,30.10,West,268,0.0,0.2,85,0.00,-SN,,0.00,WeatherDisplay:10.37,2013-02-03 01:08:00,
2013-02-02 20:13:00,22.8,19.2,30.10,West,268,2.3,2.3,86,0.00,-SN,,0.00,WeatherDisplay:10.37,2013-02-03 01:13:00,
2013-02-02 20:18:00,22.8,19.2,30.10,West,268,1.1,1.1,86,0.00,-SN,,0.00,WeatherDisplay:10.37,2013-02-03 01:18:00,
2013-02-02 20:23:00,22.9,19.3,30.10,West,268,2.3,2.3,86,0.00,-SN,,0.00,WeatherDisplay:10.37,2013-02-03 01:23:00,
2013-02-02 20:28:00,22.8,19.5,30.10,West,269,3.5,3.5,87,0.00,-SN,,0.00,WeatherDisplay:10.37,2013-02-03 01:28:00,
2013-02-02 20:33:00,22.9,19.6,30.09,West,269,3.0,3.0,87,0.00,-SN,,0.01,WeatherDisplay:10.37,2013-02-03 01:33:00,
2013-02-02 20:38:00,22.9,19.6,30.09,West,269,3.5,3.5,87,0.01,-SN,,0.01,WeatherDisplay:10.37,2013-02-03 01:38:00,
2013-02-02 20:43:00,22.9,19.6,30.09,West,269,2.3,0.0,87,0.01,-SN,,0.01,WeatherDisplay:10.37,2013-02-03 01:43:00,
2013-02-02 20:48:00,22.9,19.9,30.09,West,269,0.0,0.8,88,0.01,-SN,,0.01,WeatherDisplay:10.37,2013-02-03 01:48:00,
2013-02-02 20:53:00,23.0,20.0,30.09,West,269,3.5,3.5,88,0.01,-SN,,0.01,WeatherDisplay:10.37,2013-02-03 01:53:00,
2013-02-02 20:58:00,23.1,20.1,30.10,West,269,2.3,2.3,88,0.01,-SN,,0.01,WeatherDisplay:10.37,2013-02-03 01:58:00,
2013-02-02 21:03:00,23.0,20.0,30.10,NNW,329,3.5,3.5,88,0.01,-SN,,0.01,WeatherDisplay:10.37,2013-02-03 02:03:00,
2013-02-02 21:08:00,22.9,19.9,30.10,WNW,296,1.1,1.1,88,0.01,-SN,,0.01,WeatherDisplay:10.37,2013-02-03 02:08:00,
2013-02-02 21:13:00,22.9,19.9,30.10,WNW,283,3.5,3.5,88,0.01,-SN,,0.01,WeatherDisplay:10.37,2013-02-03 02:13:00,
2013-02-02 21:18:00,22.9,20.1,30.10,WNW,283,2.3,2.3,89,0.01,-SN,,0.01,WeatherDisplay:10.37,2013-02-03 02:18:00,
2013-02-02 21:23:00,22.9,20.1,30.10,NW,316,3.5,3.5,89,0.02,-SN,,0.02,WeatherDisplay:10.37,2013-02-03 02:23:00,
2013-02-02 21:28:00,23.0,20.2,30.10,WNW,290,3.0,3.0,89,0.02,-SN,,0.02,WeatherDisplay:10.37,2013-02-03 02:28:00,
2013-02-02 21:33:00,23.0,20.2,30.10,West,277,0.0,0.0,89,0.02,-SN,,0.02,WeatherDisplay:10.37,2013-02-03 02:33:00,
2013-02-02 21:38:00,23.0,20.2,30.10,NW,317,3.5,3.5,89,0.01,-SN,,0.02,WeatherDisplay:10.37,2013-02-03 02:38:00,
2013-02-02 21:43:00,22.9,20.1,30.09,NW,317,2.3,2.3,89,0.01,-SN,,0.02,WeatherDisplay:10.37,2013-02-03 02:43:00,
2013-02-02 21:48:00,22.9,20.1,30.09,NW,317,0.0,0.0,89,0.01,-SN,,0.02,WeatherDisplay:10.37,2013-02-03 02:48:00,
2013-02-02 21:53:00,23.0,20.2,30.09,NW,317,1.1,0.0,89,0.01,-SN,,0.02,WeatherDisplay:10.37,2013-02-03 02:53:00,
2013-02-02 21:58:00,23.0,20.2,30.09,NW,317,0.0,0.0,89,0.01,-SN,,0.02,WeatherDisplay:10.37,2013-02-03 02:58:00,
2013-02-02 22:03:00,23.1,20.3,30.09,NW,317,2.3,2.3,89,0.01,-SN,,0.02,WeatherDisplay:10.37,2013-02-03 03:03:00,
2013-02-02 22:08:00,23.0,20.2,30.09,NW,317,1.1,1.1,89,0.01,-SN,,0.02,WeatherDisplay:10.37,2013-02-03 03:08:00,
2013-02-02 22:13:00,23.0,20.2,30.09,NW,317,2.3,2.3,89,0.01,-SN,,0.02,WeatherDisplay:10.37,2013-02-03 03:13:00,
2013-02-02 22:18:00,23.0,20.2,30.09,West,274,3.5,3.5,89,0.01,-SN,,0.02,WeatherDisplay:10.37,2013-02-03 03:18:00,
2013-02-02 22:23:00,23.0,20.2,30.09,West,274,0.0,0.0,89,0.00,-SN,,0.02,WeatherDisplay:10.37,2013-02-03 03:23:00,
2013-02-02 22:28:00,23.1,20.3,30.09,West,274,0.0,0.0,89,0.00,-SN,,0.02,WeatherDisplay:10.37,2013-02-03 03:28:00,
2013-02-02 22:33:00,23.1,20.3,30.09,West,274,0.0,0.0,89,0.00,-SN,,0.02,WeatherDisplay:10.37,2013-02-03 03:33:00,
2013-02-02 22:38:00,23.0,20.2,30.08,West,274,0.0,0.0,89,0.00,-SN,,0.02,WeatherDisplay:10.37,2013-02-03 03:38:00,
2013-02-02 22:43:00,23.0,20.2,30.08,West,274,1.1,0.0,89,0.00,-SN,,0.02,WeatherDisplay:10.37,2013-02-03 03:43:00,
2013-02-02 22:48:00,23.0,20.2,30.08,West,274,0.0,0.0,89,0.00,-SN,,0.02,WeatherDisplay:10.37,2013-02-03 03:48:00,
2013-02-02 22:53:00,22.9,20.1,30.08,West,274,0.0,0.0,89,0.00,-SN,,0.02,WeatherDisplay:10.37,2013-02-03 03:53:00,
2013-02-02 22:58:00,22.9,20.4,30.08,West,274,0.0,0.0,90,0.01,-SN,,0.03,WeatherDisplay:10.37,2013-02-03 03:58:00,
2013-02-02 23:03:00,22.9,20.4,30.08,West,274,3.5,3.5,90,0.01,-SN,,0.03,WeatherDisplay:10.37,2013-02-03 04:03:00,
2013-02-02 23:08:00,22.9,20.4,30.08,West,274,1.1,0.0,90,0.01,-SN,,0.03,WeatherDisplay:10.37,2013-02-03 04:08:00,
2013-02-02 23:13:00,23.0,20.5,30.08,West,274,2.0,2.0,90,0.01,-SN,,0.03,WeatherDisplay:10.37,2013-02-03 04:13:00,
2013-02-02 23:18:00,23.0,20.5,30.08,West,274,2.0,2.0,90,0.01,-SN,,0.03,WeatherDisplay:10.37,2013-02-03 04:18:00,
2013-02-02 23:23:00,22.9,20.4,30.08,West,274,0.0,0.0,90,0.01,-SN,,0.03,WeatherDisplay:10.37,2013-02-03 04:23:00,
2013-02-02 23:28:00,22.9,20.4,30.07,West,274,1.1,1.1,90,0.01,-SN,,0.03,WeatherDisplay:10.37,2013-02-03 04:28:00,
2013-02-02 23:33:00,22.8,20.3,30.07,West,274,0.0,0.1,90,0.01,-SN,,0.03,WeatherDisplay:10.37,2013-02-03 04:33:00,
2013-02-02 23:38:00,22.8,20.3,30.07,West,274,2.3,0.0,90,0.01,-SN,,0.03,WeatherDisplay:10.37,2013-02-03 04:38:00,
2013-02-02 23:43:00,22.7,20.2,30.07,West,274,0.0,0.0,90,0.01,-SN,,0.03,WeatherDisplay:10.37,2013-02-03 04:43:00,
2013-02-02 23:48:00,22.7,20.2,30.07,West,274,2.3,2.3,90,0.01,-SN,,0.03,WeatherDisplay:10.37,2013-02-03 04:48:00,
2013-02-02 23:53:00,22.7,20.2,30.07,West,274,0.0,0.0,90,0.01,-SN,,0.03,WeatherDisplay:10.37,2013-02-03 04:53:00,
2013-02-02 23:58:00,22.7,20.2,30.06,West,274,0.0,0.0,90,0.00,-SN,,0.03,WeatherDisplay:10.37,2013-02-03 04:58:00,